Location: Seattle
(47.6064°N, 122.3308°W)
Time: 03:58:18
(UTC-08:00)

Courier 1B Rocket - Visible Passes

Search period start: 30 November 2020 00:00
Search period end: 10 December 2020 00:00
Orbit: 920 x 1202 km, 28.2° (Epoch: 29 November)

Date Brightness Start Highest point End Pass type
(mag) Time Alt. Az. Time Alt. Az. Time Alt. Az.
30 Nov 7.5 05:40:32 10° SSW 05:44:39 15° S 05:48:42 10° SE visible
01 Dec 7.5 04:40:36 10° S 04:43:51 13° SSE 04:47:06 10° SE visible
01 Dec 7.5 06:31:26 10° SW 06:36:09 17° S 06:40:48 10° SE visible
02 Dec 7.6 03:42:26 10° SSE 03:43:05 10° SSE 03:44:06 10° SSE visible
02 Dec 7.4 05:30:44 10° SSW 05:35:19 17° S 05:39:53 10° SE visible
03 Dec 7.3 04:31:46 13° SSW 04:34:30 15° S 04:38:39 10° SE visible
03 Dec 7.4 06:22:10 10° SW 06:26:50 17° S 06:31:28 10° SSE visible
04 Dec 7.5 03:34:40 13° SSE 03:34:40 13° SSE 03:36:55 10° SE visible
04 Dec 7.3 05:21:16 10° SW 05:26:00 17° S 05:30:45 10° SE visible
05 Dec 7.2 04:23:53 16° S 04:25:10 17° S 04:29:44 10° SE visible
05 Dec 7.4 06:13:12 10° SW 06:17:31 16° S 06:21:50 10° SSE visible
06 Dec 7.5 03:26:42 13° SSE 03:26:42 13° SSE 03:28:23 10° SE visible
06 Dec 7.2 05:13:04 12° SW 05:16:41 17° S 05:21:20 10° SSE visible
06 Dec 7.6 07:06:51 10° SW 07:08:57 11° SSW 07:11:03 10° S visible
07 Dec 7.2 04:15:52 17° S 04:15:52 17° S 04:20:30 10° SE visible
07 Dec 7.4 06:04:37 10° SW 06:08:11 14° SSW 06:11:45 10° SSE visible
08 Dec 7.6 03:18:38 12° SE 03:18:38 12° SE 03:19:25 10° SE visible
08 Dec 7.2 05:05:00 14° SSW 05:07:22 15° S 05:11:35 10° SSE visible
09 Dec 7.2 04:07:47 16° S 04:07:47 16° S 04:11:01 10° SSE visible
09 Dec 7.4 05:56:59 10° SSW 05:58:49 11° SSW 06:00:39 10° S visible
